DateTime,DeltaTime,Roll,TargetAngle,Position,Power
2022-05-23 14:48:01.927,0,1.15,-17.08,3,90
2022-05-23 14:48:02.041,0.114000588655472,-3.14,-22,3,90
2022-05-23 14:48:02.152,0.225003808736801,-5.33,-22,3,90
2022-05-23 14:48:02.267,0.340000167489052,-4.31,-13.6,3,50.3
2022-05-23 14:48:02.381,0.454000756144524,-0.63,10.93,2,-61.38
2022-05-23 14:48:02.496,0.568997114896774,3.98,28,2,-90
2022-05-23 14:48:02.610,0.682997703552246,7.02,28,3,-90
2022-05-23 14:48:02.725,0.798004120588303,6.69,18.96,2,-45.76
2022-05-23 14:48:02.840,0.913000479340553,3.54,-4.33,3,52.55
2022-05-23 14:48:02.955,1.0279968380928,-0.76,-22,2,90
2022-05-23 14:48:03.070,1.14300325512886,-4.23,-22,3,87.29
2022-05-23 14:48:03.184,1.25700384378433,-4.99,-22,3,90
2022-05-23 14:48:03.299,1.37200020253658,-2.67,-2.23,3,-6.59
2022-05-23 14:48:03.414,1.48699656128883,1.54,20.81,2,-90
2022-05-23 14:48:03.528,1.60099714994431,5.48,28,3,-90
2022-05-23 14:48:03.643,1.71600356698036,6.84,26.94,3,-85.67
2022-05-23 14:48:03.758,1.83099992573261,5.04,6.82,3,12.24
2022-05-23 14:48:03.872,1.94500051438808,1.4,-13.97,3,89.54
2022-05-23 14:48:03.986,2.05900110304356,-2.38,-22,2,90
2022-05-23 14:48:04.102,2.17500329017639,-4.4,-22,2,87.29
2022-05-23 14:48:04.216,2.28900387883186,-3.49,-11.2,3,34.57
2022-05-23 14:48:04.331,2.40400023758411,-0.31,9.8,3,-50.09
2022-05-23 14:48:04.446,2.51899659633636,3.61,26.75,3,-90
2022-05-23 14:48:04.560,2.63299718499184,5.95,28,3,-90
2022-05-23 14:48:04.675,2.74800360202789,5.41,13.56,3,-20.09
2022-05-23 14:48:04.790,2.86299996078014,2.64,-5.78,3,56.76
2022-05-23 14:48:04.905,2.97799631953239,-0.87,-21.33,2,90
2022-05-23 14:48:05.019,3.09199690818787,-3.34,-22,2,88.17
2022-05-23 14:48:05.134,3.20700332522392,-3.44,-15.43,2,55.75
2022-05-23 14:48:05.296,3.3690020442009,-1.16,2.88,3,-27.22
2022-05-23 14:48:05.363,3.43600027263165,2.25,19.8,2,-82.95
2022-05-23 14:48:05.478,3.5509966313839,4.95,26.18,2,-90
2022-05-23 14:48:05.593,3.66600304841995,5.23,16.56,3,-41.18
2022-05-23 14:48:05.707,3.78000363707542,3.17,-0.91,3,37.29
2022-05-23 14:48:05.822,3.89499999582767,0.02,-16.61,2,90
2022-05-23 14:48:05.937,4.00999635457993,-2.62,-22,2,90
2022-05-23 14:48:06.051,4.1239969432354,-3.27,-17.27,3,64.94
2022-05-23 14:48:06.166,4.23900336027145,-1.58,-1.15,2,-4.48
2022-05-23 14:48:06.327,4.39999625086784,1.53,16,3,-75.09
2022-05-23 14:48:06.396,4.46900613605976,4.4,24.96,3,-90
2022-05-23 14:48:06.510,4.58299666643143,5.19,18.6,2,-49.28
2022-05-23 14:48:06.625,4.69800308346748,3.5,1.91,2,20.89
2022-05-23 14:48:06.739,4.81200367212296,0.57,-13.75,2,78.68
2022-05-23 14:48:06.854,4.92700003087521,-2.18,-22,2,90
2022-05-23 14:48:06.969,5.04199638962746,-3.2,-18.6,2,71.59
2022-05-23 14:48:07.083,5.15599697828293,-1.88,-3.79,3,1.97
2022-05-23 14:48:07.198,5.27100339531898,1.03,13.36,2,-58.86
2022-05-23 14:48:07.312,5.38500398397446,4.09,24.69,2,-90
2022-05-23 14:48:07.424,5.49700297415257,5.33,21.1,2,-65.82
2022-05-23 14:48:07.538,5.61100356280804,4.01,5.26,2,8.7
2022-05-23 14:48:07.653,5.72599992156029,1.18,-11.17,2,69.87
2022-05-23 14:48:07.767,5.84000051021576,-1.79,-22,3,90
2022-05-23 14:48:07.882,5.95499686896801,-3.29,-21.05,3,88.83
2022-05-23 14:48:07.997,6.07000328600407,-2.39,-7.44,2,20.73
2022-05-23 14:48:08.111,6.18400387465954,0.46,11.12,3,-58.32
2022-05-23 14:48:08.226,6.29900023341179,3.83,25.1,2,-90
2022-05-23 14:48:08.341,6.41399659216404,5.65,24.72,3,-84.69
2022-05-23 14:48:08.455,6.52799718081951,4.84,10.45,2,-7.53
2022-05-23 14:48:08.570,6.64300359785557,2.13,-7.37,3,55.97
2022-05-23 14:48:08.684,6.75700418651104,-1.15,-21.27,3,90
2022-05-23 14:48:08.798,6.87100477516651,-3.3,-22,2,90
2022-05-23 14:48:08.914,6.98699690401554,-3.05,-12.58,3,40.18
2022-05-23 14:48:09.028,7.10099749267101,-0.53,6.14,2,-33.47
2022-05-23 14:48:09.144,7.21699967980385,3.07,23.49,2,-90
2022-05-23 14:48:09.258,7.33100026845932,5.73,28,2,-90
2022-05-23 14:48:09.373,7.44599662721157,5.72,16.96,2,-40.79
2022-05-23 14:48:09.487,7.55999721586704,3.26,-2.28,2,39.64
2022-05-23 14:48:09.602,7.6750036329031,-0.26,-19.23,2,90
2022-05-23 14:48:09.717,7.78999999165535,-3.16,-22,2,90
2022-05-23 14:48:09.831,7.90400058031082,-3.81,-19.1,2,74.11
2022-05-23 14:48:09.946,8.01899693906307,-1.77,-0.27,3,-16.3
2022-05-23 14:48:10.060,8.13299752771854,1.89,19.62,3,-85.88
2022-05-23 14:48:10.176,8.24899971485138,5.29,28,2,-90
2022-05-23 14:48:10.353,8.42600539326668,6.37,24.05,2,-77.51
2022-05-23 14:48:10.405,8.4779966622591,4.55,5.01,2,13.83
2022-05-23 14:48:10.519,8.59199725091457,1.05,-14.58,3,86.61
2022-05-23 14:48:10.634,8.70700366795063,-2.55,-22,2,90
2022-05-23 14:48:10.749,8.82200002670288,-4.33,-22,2,87.29
2022-05-23 14:48:10.864,8.93699638545513,-3.26,-9.68,3,27
2022-05-23 14:48:10.978,9.0509969741106,0.11,12.11,3,-59.78
2022-05-23 14:48:11.093,9.16600339114666,4.12,28,2,-90
2022-05-23 14:48:11.207,9.28000397980213,6.46,28,3,-90
2022-05-23 14:48:11.361,9.43399630486965,5.77,14.19,2,-21.93
2022-05-23 14:48:11.437,9.50999669730663,2.65,-7.31,2,60.18
2022-05-23 14:48:11.552,9.62500311434269,-1.36,-22,2,90
2022-05-23 14:48:11.666,9.73900370299816,-4.31,-22,2,88.6
2022-05-23 14:48:11.781,9.85400006175041,-4.55,-19.94,3,78.27
2022-05-23 14:48:11.896,9.96899642050266,-1.92,1.8,2,-22.73
2022-05-23 14:48:12.010,10.0829970091581,2.23,22.94,2,-90
2022-05-23 14:48:12.125,10.1980034261942,5.79,28,3,-90
2022-05-23 14:48:12.240,10.3129997849464,6.6,23.63,2,-69.12
2022-05-23 14:48:12.354,10.4270003736019,4.32,2.24,2,25.82
2022-05-23 14:48:12.469,10.5419967323542,0.39,-18.8,3,90
2022-05-23 14:48:12.580,10.6529999524355,-3.35,-22,2,90
2022-05-23 14:48:12.694,10.767000541091,-4.94,-22,2,87.29
2022-05-23 14:48:12.809,10.8819968998432,-3.46,-8.65,2,21.82
2022-05-23 14:48:12.924,10.9970033168793,0.33,14.72,2,-76.59
2022-05-23 14:48:13.038,11.1110039055347,4.52,28,2,-90
2022-05-23 14:48:13.152,11.2250044941902,6.78,28,2,-90
2022-05-23 14:48:13.268,11.3409966230392,5.76,12.7,3,-19.46
2022-05-23 14:48:13.382,11.4549972116947,2.35,-9.64,3,76.23
2022-05-23 14:48:13.497,11.5700036287308,-1.79,-22,2,90
2022-05-23 14:48:13.612,11.684999987483,-4.62,-22,2,87.29
2022-05-23 14:48:13.726,11.7990005761385,-4.54,-18.56,2,71.39
2022-05-23 14:48:13.841,11.9139969348907,-1.61,4.16,2,-37.71
2022-05-23 14:48:13.956,12.0290033519268,2.71,25.36,2,-90
2022-05-23 14:48:14.070,12.1430039405823,6.22,28,3,-90
2022-05-23 14:48:14.186,12.2590061277151,6.79,23.29,2,-67.4
2022-05-23 14:48:14.300,12.3729966580868,4.33,1.42,3,29.45
2022-05-23 14:48:14.415,12.4880030751228,0.27,-19.74,2,90
2022-05-23 14:48:14.530,12.6029994338751,-3.48,-22,2,90
2022-05-23 14:48:14.644,12.7170000225306,-5.03,-22,2,88.6
2022-05-23 14:48:14.758,12.831000611186,-3.45,-8.14,3,19.3
2022-05-23 14:48:14.874,12.9470027983189,0.36,14.91,3,-71.93
2022-05-23 14:48:14.988,13.0610033869743,4.53,28,3,-90
2022-05-23 14:48:15.103,13.1759997457266,6.67,28,3,-90
2022-05-23 14:48:15.217,13.2900003343821,5.6,11.92,2,-11.86
2022-05-23 14:48:15.398,13.4709991514683,2.22,-9.93,2,70.54
2022-05-23 14:48:15.446,13.5189972817898,-1.78,-22,2,90
2022-05-23 14:48:15.561,13.6340036988258,-4.48,-22,3,88.6
2022-05-23 14:48:15.676,13.7490000575781,-4.37,-17.84,3,72.77
2022-05-23 14:48:15.790,13.8630006462336,-1.56,3.85,3,-31.54
2022-05-23 14:48:15.906,13.9790028333664,2.56,23.93,3,-90
2022-05-23 14:48:16.020,14.0930034220219,5.84,28,2,-90
2022-05-23 14:48:16.135,14.2079997807741,6.28,20.97,3,-62.12
2022-05-23 14:48:16.249,14.3220003694296,3.87,0.07,3,39.47
2022-05-23 14:48:16.414,14.4869964569807,0.01,-19.85,2,90
2022-05-23 14:48:16.479,14.5520031452179,-3.5,-22,3,90
2022-05-23 14:48:16.593,14.6660037338734,-4.76,-22,2,90
2022-05-23 14:48:16.708,14.7810000926256,-3.1,-6.59,2,10.23
2022-05-23 14:48:16.822,14.8950006812811,0.67,15.82,2,-79.59
2022-05-23 14:48:16.938,15.0110028684139,4.58,28,3,-90
2022-05-23 14:48:17.052,15.1250034570694,6.36,27.05,2,-86.25
2022-05-23 14:48:17.166,15.2390040457249,5.03,8.8,3,-2.5
2022-05-23 14:48:17.281,15.3540004044771,1.67,-11.83,2,82.49
2022-05-23 14:48:17.409,15.4820021241903,-2.08,-22,2,90
2022-05-23 14:48:17.511,15.5840031802654,-4.36,-22,2,88.6
2022-05-23 14:48:17.626,15.6989995390177,-3.85,-14.19,2,49.54
2022-05-23 14:48:17.735,15.8080011606216,-0.84,7.21,3,-47.25
2022-05-23 14:48:17.850,15.9229975193739,3.19,25.81,2,-90
2022-05-23 14:48:17.967,16.0400055348873,5.95,28,3,-90
2022-05-23 14:48:18.080,16.1530002951622,5.79,16.57,2,-33.79
2022-05-23 14:48:18.194,16.2670008838177,3.13,-3.61,3,44.58
2022-05-23 14:48:18.310,16.3830030709505,-0.58,-21.21,2,90
2022-05-23 14:48:18.424,16.497003659606,-3.53,-22,2,88.32
2022-05-23 14:48:18.539,16.6120000183582,-4.09,-19.76,2,77.42
2022-05-23 14:48:18.653,16.7260006070137,-1.93,-0.28,2,-17.08
2022-05-23 14:48:18.767,16.8400011956692,1.86,20.06,2,-90
2022-05-23 14:48:18.883,16.956003382802,5.24,28,2,-90
2022-05-23 14:48:18.998,17.0709997415543,6.21,23.03,2,-71.14
2022-05-23 14:48:19.112,17.1850003302097,4.31,3.84,3,18.35
2022-05-23 14:48:19.227,17.299996688962,0.87,-14.97,2,90
2022-05-23 14:48:19.342,17.415003105998,-2.52,-22,3,90
2022-05-23 14:48:19.456,17.5290036946535,-4.09,-22,2,90
2022-05-23 14:48:19.571,17.6440000534058,-2.87,-7.7,2,15.78
2022-05-23 14:48:19.685,17.7580006420612,0.48,13.33,2,-68.48
2022-05-23 14:48:19.800,17.8729970008135,4.21,28,3,-90
2022-05-23 14:48:19.915,17.9880034178495,6.15,27.04,2,-86.16
2022-05-23 14:48:20.030,18.1029997766018,5.21,11.15,3,-14.27
2022-05-23 14:48:20.144,18.2170003652573,2.2,-8.38,3,68.07
2022-05-23 14:48:20.260,18.3330025523901,-1.41,-22,3,90
2022-05-23 14:48:20.374,18.4470031410456,-3.77,-22,2,90
2022-05-23 14:48:20.488,18.561003729701,-3.54,-14.34,2,48.97
2022-05-23 14:48:20.603,18.6760000884533,-0.89,5.46,3,-38.68
2022-05-23 14:48:20.717,18.7900006771088,2.87,23.49,2,-90
2022-05-23 14:48:20.832,18.904997035861,5.63,28,2,-90
2022-05-23 14:48:20.947,19.0200034528971,5.65,16.89,2,-40.41
2022-05-23 14:48:21.061,19.1340040415525,3.22,-2.3,3,39.65
2022-05-23 14:48:21.176,19.2490004003048,-0.29,-19.29,3,90
2022-05-23 14:48:21.292,19.3650025874376,-3.21,-22,2,90
2022-05-23 14:48:21.473,19.5460014045238,-3.9,-19.59,3,75.22
2022-05-23 14:48:21.521,19.5939995348454,-1.95,-1.34,2,-6.54
2022-05-23 14:48:21.635,19.7080001235008,1.61,18.23,3,-86.47
2022-05-23 14:48:21.750,19.8229964822531,4.83,28,2,-90
2022-05-23 14:48:21.865,19.9380028992891,5.82,21.7,3,-65.77
2022-05-23 14:48:21.980,20.0529992580414,4.07,3.66,2,22.48
2022-05-23 14:48:22.094,20.1669998466969,0.82,-14.29,3,82.27
2022-05-23 14:48:22.209,20.2819962054491,-2.39,-22,2,90
2022-05-23 14:48:22.323,20.3959967941046,-3.84,-22,2,87.29
2022-05-23 14:48:22.471,20.5440044403076,-2.64,-6.94,2,13.3
2022-05-23 14:48:22.553,20.6259995698929,0.62,13.4,2,-67.9
2022-05-23 14:48:22.667,20.7400001585484,4.24,27.69,3,-90
2022-05-23 14:48:22.782,20.8549965173006,6.05,26.06,3,-81.71
2022-05-23 14:48:22.896,20.9689971059561,5,9.96,3,-4.62
2022-05-23 14:48:23.007,21.0800003260374,1.97,-9.32,2,70.09
2022-05-23 14:48:23.122,21.1949966847897,-1.55,-22,2,90
2022-05-23 14:48:23.237,21.3100031018257,-3.72,-22,2,88.6
2022-05-23 14:48:23.351,21.4240036904812,-3.29,-12.57,3,41.43
2022-05-23 14:48:23.483,21.5559985488653,-0.44,7.88,2,-42.12
2022-05-23 14:48:23.580,21.6530006378889,3.34,25.21,3,-90
2022-05-23 14:48:23.695,21.7679969966412,5.96,28,2,-90
2022-05-23 14:48:23.810,21.8830034136772,5.81,16.67,2,-40.63
2022-05-23 14:48:23.925,21.9979997724295,3.22,-3.03,3,43.03
2022-05-23 14:48:24.040,22.1129961311817,-0.42,-20.33,2,90
2022-05-23 14:48:24.154,22.2269967198372,-3.39,-22,3,89.48
2022-05-23 14:48:24.269,22.3420031368732,-3.9,-18.89,2,78.07
2022-05-23 14:48:24.383,22.4560037255287,-1.66,0.98,3,-23.56
2022-05-23 14:48:24.498,22.571000084281,2.21,21.66,3,-90
2022-05-23 14:48:24.612,22.6850006729364,5.61,28,3,-90
2022-05-23 14:48:24.727,22.7999970316887,6.56,24.1,2,-72.79
2022-05-23 14:48:24.843,22.9159992188215,4.51,3.84,3,18.43
2022-05-23 14:48:24.956,23.0290040373802,0.85,-15.99,2,90
2022-05-23 14:48:25.071,23.1440003961325,-2.79,-22,2,90
2022-05-23 14:48:25.186,23.2589967548847,-4.47,-22,2,88.6
2022-05-23 14:48:25.301,23.3740031719208,-3.13,-8.11,2,19.11
2022-05-23 14:48:25.415,23.4880037605762,0.44,14.18,2,-73.24
2022-05-23 14:48:25.530,23.6030001193285,4.6,28,2,-90
2022-05-23 14:48:25.645,23.7179964780807,6.92,28,2,-90
2022-05-23 14:48:25.759,23.8319970667362,6.01,14.1,3,-26.47
2022-05-23 14:48:25.875,23.9479992538691,2.65,-8.41,2,71.81
2022-05-23 14:48:25.989,24.0619998425245,-1.55,-22,2,90
2022-05-23 14:48:26.104,24.1769962012768,-4.42,-22,3,88.6
2022-05-23 14:48:26.218,24.2909967899323,-4.5,-19.05,3,78.85
2022-05-23 14:48:26.333,24.4060032069683,-1.61,4.03,3,-34.01
2022-05-23 14:48:26.447,24.5200037956238,2.78,25.89,2,-90
2022-05-23 14:48:26.562,24.635000154376,6.48,28,2,-90
2022-05-23 14:48:26.677,24.7499965131283,7.26,25.84,2,-85.17
2022-05-23 14:48:26.792,24.8650029301643,4.87,3.63,2,23.06
2022-05-23 14:48:26.906,24.9790035188198,0.76,-18.26,2,90
2022-05-23 14:48:27.021,25.0939998775721,-3.21,-22,2,90
2022-05-23 14:48:27.135,25.2080004662275,-5.04,-22,3,88.6
2022-05-23 14:48:27.250,25.3229968249798,-3.62,-9.47,2,30.93
2022-05-23 14:48:27.364,25.4369974136353,0.29,15.14,3,-80.9
2022-05-23 14:48:27.525,25.5980003625154,4.84,28,2,-90
2022-05-23 14:48:27.595,25.6680060178041,7.45,28,2,-90
2022-05-23 14:48:27.709,25.7819965481758,6.73,17.4,3,-42.99
2022-05-23 14:48:27.825,25.8979987353086,3.36,-5.88,2,63.16
2022-05-23 14:48:27.939,26.0119993239641,-1.02,-22,3,90
2022-05-23 14:48:28.049,26.1219967156649,-4.35,-22,3,90
2022-05-23 14:48:28.164,26.2370031327009,-4.86,-22,2,90
2022-05-23 14:48:28.278,26.3510037213564,-2.27,0.35,2,-24.49
2022-05-23 14:48:28.393,26.4660000801086,2.13,23.75,2,-90
2022-05-23 14:48:28.521,26.5940017998219,6.07,28,3,-90
2022-05-23 14:48:28.622,26.6949970275164,7.37,28,3,-90
2022-05-23 14:48:28.737,26.8100034445524,5.43,7.56,2,9.94
2022-05-23 14:48:28.852,26.9249998033047,1.55,-14.53,2,88.23
2022-05-23 14:48:28.966,27.0390003919601,-2.52,-22,2,90
2022-05-23 14:48:29.081,27.1539967507124,-4.82,-22,2,88.6
2022-05-23 14:48:29.196,27.2690031677485,-4.06,-13.84,3,47.77
2022-05-23 14:48:29.310,27.3830037564039,-0.72,9.07,2,-51.09
2022-05-23 14:48:29.425,27.4980001151562,3.63,28,2,-90
2022-05-23 14:48:29.541,27.614002302289,6.58,28,2,-90
2022-05-23 14:48:29.655,27.7280028909445,6.59,20.17,3,-56.8
2022-05-23 14:48:29.769,27.8420034796,3.91,-0.99,3,43.76
2022-05-23 14:48:29.884,27.9569998383522,-0.05,-20.45,3,90
